Regional Weather Roundup
Issued by NWS

Home | Current Version | Previous Version | Text Only | Print | Product List | Glossary Off
Versions: 1 2 3 4 5 6 7 8 9 10 11 12 13 14 15 16 17 18 19 20 21 22 23 24 25 26 27 28 29 30 31 32 33 34 35 36 37 38 39 40 41 42 43 44 45 46 47 48 49 50

000
ASUS43 KDTX 280101
RWRMI
MICHIGAN HOURLY REGIONAL WEATHER ROUNDUP
NATIONAL WEATHER SERVICE DETROIT/PONTIAC MI
900 PM EDT FRI MAR 27 2015

NOTE: "FAIR" INDICATES FEW OR NO CLOUDS BELOW 12,000 FEET WITH NO
SIGNIFICANT WEATHER AND/OR OBSTRUCTION TO VISIBILITY.

MIZ047>049-052>055-059>063-066>070-074>076-081>083-280200-
SOUTHEAST LOWER MICHIGAN

CITY           SKY/WX    TMP DP  RH WIND       PRES   REMARKS
ADRIAN         CLEAR     24   7  48 NE8       30.09R WCI  15
ALMA           MOCLDY    23   5  47 N10G16    30.13R WCI  12
ANN ARBOR      MOCLDY    23   6  48 N8        30.08R WCI  14
BAD AXE        CLOUDY    17   6  61 N9        30.13R WCI   6
CARO           CLEAR     16   8  68 E5        30.13R WCI   9
DETROIT CITY   CLEAR     22   8  55 N9        30.11R WCI  12
DETROIT        PTCLDY    23   5  46 N8        30.10R WCI  14
FLINT          CLEAR     21   8  57 NE12      30.12R WCI   9
GROSSE ILE     PTCLDY    23  10  58 N7        30.09R WCI  15
HILLSDALE      CLEAR     24   2  39 N3        30.05R
HOWELL         CLEAR     21   6  52 N3        30.08R

CITY           SKY/WX    TMP DP  RH WIND       PRES   REMARKS
JACKSON        CLEAR     22   3  44 N6        30.08R WCI  14
LAMBERTVILLE   FAIR      25  14  63 CALM      30.10R
LANSING        CLEAR     23   2  40 N7        30.11R WCI  15
LAPEER         FAIR      17   8  69 NE7       30.12R WCI   7
MASON          CLEAR     22   3  44 N5        30.08R WCI  15
MONROE         PTCLDY    23  14  68 CALM      30.08R
MT. CLEMENS    CLEAR     19   9  64 N13       30.09R WCI   6
PONTIAC        PTCLDY    19   6  57 N14       30.08R WCI   6
PORT HOPE        N/A     20   8  60 N9G24     30.12R WCI   9
PORT HURON     CLEAR     16   7  67 N7        30.12R WCI   6
TRI CITIES     CLEAR     20  10  65 E9        30.15R WCI   9
TROY           CLEAR     21   9  59 N5G16     30.12R WCI  15
SAGINAW HB     PTCLDY    19  12  73 E12       30.14R WCI   7
$$
MIZ043>046-050>051-056>058-064>065-071>073-077>080-280200-
SOUTHWEST LOWER MICHIGAN

CITY           SKY/WX    TMP DP  RH WIND       PRES   REMARKS
BATTLE CREEK   CLEAR     24   9  52 W12       30.09R WCI  13
BENTON HARBOR  PTCLDY    21  12  68 VRB6      30.16R WCI  13
BIG RAPIDS     CLEAR     19   1  47 N12       30.14R WCI   6
COLDWATER      FAIR      24   6  46 NW8       30.08R WCI  15
FREMONT        FAIR      21  -5  32 N12       30.16R WCI   9
HOLLAND        CLEAR     24   8  50 NW12      30.15R WCI  13
GRAND RAPIDS   CLEAR     23   0  36 N13       30.12R WCI  11
IONIA          FAIR      23  -1  35 N9        30.11R WCI  13
KALAMAZOO      CLEAR     23   9  55 NW13      30.11R WCI  11
LUDINGTON      CLEAR     19   5  53 NE3       30.20R
MARSHALL       CLEAR     23   1  38 N3        30.08R
MOUNT PLEASANT CLEAR     21   3  47 NW8       30.13R WCI  11
MUSKEGON       CLEAR     21   4  47 N14       30.18R WCI   8
SOUTH HAVEN    FAIR      24  12  61 N7        30.15R WCI  15
$$
MIZ016>042-280200-
NORTHERN LOWER MICHIGAN

CITY           SKY/WX    TMP DP  RH WIND       PRES   REMARKS
ALPENA         CLEAR     16   4  59 W5        30.16R WCI   9
BEAVER ISLAND  CLEAR     15   1  53 CALM      30.21R
BELLAIRE       CLEAR     17   2  52 CALM      30.20S
CADILLAC       CLEAR     14   0  52 N6        30.13R WCI   5
CHARLEVOIX     CLEAR     16   6  66 N6        30.23R WCI   7
FRANKFORT      CLEAR     21   1  42 NE3       30.20S
GAYLORD        CLEAR     14   1  56 VRB5      30.12R WCI   6
GRAYLING       CLEAR     15   0  51 NW7       30.14R WCI   5
HARBOR SPRINGS CLEAR     16   2  55 CALM      30.19R
HOUGHTON LAKE  CLEAR     16   0  49 NW8       30.13R WCI   5
MANISTEE       CLEAR     19   1  45 N6        30.20R WCI  11
OSCODA         PTCLDY    16   3  58 NW3       30.15R
PELLSTON       CLEAR     16   5  62 NW9       30.19R WCI   4
ROGERS CITY    CLEAR     18   8  67 NW10      30.17R WCI   6
TRAVERSE CITY  FAIR      18   4  54 N7        30.19R WCI   9
$$
MIZ007>008-015-280200-
EASTERN UPPER MICHIGAN

CITY           SKY/WX    TMP DP  RH WIND       PRES   REMARKS
KINROSS        CLEAR     10   5  79 NW12      30.18R WCI  -4
MACKINAC ISLAN CLEAR     15   4  59 N8        30.18R WCI   5
NEWBERRY       CLEAR      9   2  74 NW3       30.19S
S. S. MARIE    CLEAR     10   4  76 W8        30.19R WCI  -2
$$
MIZ004>006-011>014-085-280200-
CENTRAL UPPER MICHIGAN

CITY           SKY/WX    TMP DP  RH WIND       PRES   REMARKS
MANISTIQUE     CLEAR     12   0  59 NW5       30.22R WCI   4
ESCANABA       CLEAR     18   0  45 NE8       30.21S WCI   7
MENOMINEE      CLEAR     19   9  63 SE7       30.20S WCI  10
SAWYER-GWINN   CLEAR     12   3  67 NE5       30.18S WCI   4
$$
MIZ001>003-009>011-084-280200-
WESTERN UPPER MICHIGAN

CITY           SKY/WX    TMP DP  RH WIND       PRES   REMARKS
IRON MOUNTAIN  CLEAR     25   0  33 CALM      30.14S
HOUGHTON       CLEAR     12   4  70 CALM      30.18S
COPPER HARBOR    N/A     10   5  80 SW3       30.22S
IRONWOOD       CLEAR     21   5  49 CALM      30.14S
$$

ABBREVIATIONS USED IN REMARKS
   TC - TEMPERATURE IN CELSIUS
  WCI - WIND CHILL INDEX
   HX - HEAT INDEX
  VSB - VISIBILITY




USA.gov is the U.S. government's official web portal to all federal, state and local government web resources and services.